| time (UTC) | temp F | wind direction | speed knots | gust knots | rain 1hr in | rain 24hr in | rain mn in | humidity % | barometer mb |
| 20260505023001 | 57 | 254 | 0.0 | 0.0 | 0.00 | 0.00 | 0.00 | 69 | 1012.1 |
| 20260505022555 | 58 | 254 | 0.0 | 0.0 | 0.00 | 0.00 | 0.00 | 68 | 1012.0 |
| 20260505022048 | 58 | 254 | 0.0 | 0.0 | 0.00 | 0.00 | 0.00 | 67 | 1012.0 |
| 20260505021601 | 58 | 254 | 0.0 | 0.0 | 0.00 | 0.00 | 0.00 | 67 | 1012.0 |
| 20260505021054 | 58 | 254 | 0.0 | 0.0 | 0.00 | 0.00 | 0.00 | 67 | 1012.0 |
| 20260505020549 | 58 | 254 | 0.0 | 0.0 | 0.00 | 0.00 | 0.00 | 67 | 1012.0 |
| 20260505020001 | 59 | 254 | 0.0 | 0.0 | 0.00 | 0.00 | 0.00 | 66 | 1012.1 |
| 20260505015558 | 59 | 254 | 0.0 | 0.0 | 0.00 | 0.00 | 0.00 | 66 | 1011.9 |
| 20260505015052 | 59 | 254 | 0.0 | 0.0 | 0.00 | 0.00 | 0.00 | 66 | 1012.0 |
| 20260505014527 | 59 | 254 | 0.0 | 0.0 | 0.00 | 0.00 | 0.00 | 66 | 1012.0 |
| 20260505014021 | 60 | 254 | 0.0 | 0.0 | 0.00 | 0.00 | 0.00 | 65 | 1012.0 |
| 20260505013518 | 60 | 254 | 0.0 | 0.0 | 0.00 | 0.00 | 0.00 | 64 | 1012.0 |
| 20260505013030 | 60 | 254 | 0.0 | 0.0 | 0.00 | 0.00 | 0.00 | 63 | 1012.0 |
| 20260505012526 | 61 | 254 | 0.0 | 0.0 | 0.00 | 0.00 | 0.00 | 62 | 1012.0 |
| 20260505012019 | 61 | 254 | 0.0 | 0.0 | 0.00 | 0.00 | 0.00 | 63 | 1012.0 |
| 20260505011554 | 61 | 254 | 0.0 | 0.0 | 0.00 | 0.00 | 0.00 | 62 | 1012.0 |
| 20260505011028 | 61 | 254 | 0.0 | 0.0 | 0.00 | 0.00 | 0.00 | 62 | 1012.0 |
| 20260505010527 | 61 | 254 | 0.0 | 0.0 | 0.00 | 0.00 | 0.00 | 61 | 1012.0 |
| 20260505010035 | 61 | 254 | 0.0 | 0.0 | 0.00 | 0.00 | 0.00 | 61 | 1012.1 |
| 20260505005530 | 62 | 254 | 0.0 | 0.0 | 0.00 | 0.00 | 0.00 | 61 | 1012.1 |
| 20260505005026 | 62 | 254 | 0.0 | 0.0 | 0.00 | 0.00 | 0.00 | 60 | 1012.0 |
| 20260505004539 | 63 | 254 | 0.0 | 0.0 | 0.00 | 0.00 | 0.00 | 59 | 1012.0 |
| 20260505004035 | 63 | 254 | 0.0 | 0.0 | 0.00 | 0.00 | 0.00 | 58 | 1012.0 |
| 20260505003529 | 63 | 254 | 0.0 | 0.0 | 0.00 | 0.00 | 0.00 | 58 | 1012.1 |
| 20260505003044 | 64 | 254 | 0.0 | 0.0 | 0.00 | 0.00 | 0.00 | 58 | 1012.0 |
| 20260505002538 | 64 | 254 | 0.0 | 0.0 | 0.00 | 0.00 | 0.00 | 56 | 1012.0 |
| 20260505002031 | 64 | 254 | 0.0 | 0.0 | 0.00 | 0.00 | 0.00 | 56 | 1012.1 |
| 20260505001556 | 65 | 254 | 0.0 | 0.0 | 0.00 | 0.00 | 0.00 | 55 | 1012.0 |
| 20260505001038 | 65 | 254 | 0.0 | 0.0 | 0.00 | 0.00 | 0.00 | 55 | 1012.1 |
| 20260505000533 | 66 | 254 | 0.0 | 0.0 | 0.00 | 0.00 | 0.00 | 54 | 1012.1 |
| 20260505000100 | 66 | 242 | 0.0 | 0.0 | 0.00 | 0.00 | 0.00 | 53 | 1012.0 |
| 20260504235539 | 66 | 242 | 0.0 | 2.6 | 0.00 | 0.00 | 0.00 | 53 | 1012.1 |
| 20260504235033 | 67 | 113 | 0.9 | 2.6 | 0.00 | 0.00 | 0.00 | 52 | 1012.1 |
| 20260504234547 | 67 | 26 | 0.0 | 3.5 | 0.00 | 0.00 | 0.00 | 53 | 1012.1 |
| 20260504234042 | 67 | 187 | 1.7 | 3.5 | 0.00 | 0.00 | 0.00 | 51 | 1012.1 |
| 20260504233537 | 67 | 278 | 0.9 | 7.0 | 0.00 | 0.00 | 0.00 | 51 | 1012.1 |
| 20260504233103 | 68 | 304 | 0.9 | 7.0 | 0.00 | 0.00 | 0.00 | 51 | 1012.0 |
| 20260504232543 | 68 | 258 | 0.0 | 2.6 | 0.00 | 0.00 | 0.00 | 52 | 1011.9 |
| 20260504232038 | 68 | 68 | 0.0 | 1.7 | 0.00 | 0.00 | 0.00 | 51 | 1012.0 |
| 20260504231553 | 68 | 70 | 0.0 | 5.2 | 0.00 | 0.00 | 0.00 | 51 | 1011.9 |
| 20260504231045 | 68 | 61 | 1.7 | 5.2 | 0.00 | 0.00 | 0.00 | 49 | 1011.8 |
| 20260504230539 | 69 | 84 | 0.0 | 6.1 | 0.00 | 0.00 | 0.00 | 50 | 1011.9 |
| 20260504230050 | 69 | 340 | 0.9 | 6.1 | 0.00 | 0.00 | 0.00 | 49 | 1012.1 |
| 20260504225544 | 69 | 314 | 0.9 | 6.1 | 0.00 | 0.00 | 0.00 | 49 | 1011.9 |
| 20260504225034 | 69 | 70 | 0.9 | 3.5 | 0.00 | 0.00 | 0.00 | 49 | 1012.0 |
| 20260504224548 | 69 | 71 | 0.9 | 6.1 | 0.00 | 0.00 | 0.00 | 49 | 1012.0 |
| 20260504224040 | 69 | 296 | 1.7 | 9.6 | 0.00 | 0.00 | 0.00 | 47 | 1012.1 |
| 20260504223533 | 69 | 133 | 1.7 | 7.8 | 0.00 | 0.00 | 0.00 | 47 | 1012.1 |
| 20260504223047 | 69 | 5 | 1.7 | 7.0 | 0.00 | 0.00 | 0.00 | 47 | 1011.9 |
| 20260504222542 | 69 | 41 | 1.7 | 8.7 | 0.00 | 0.00 | 0.00 | 47 | 1011.8 |
| 20260504222030 | 69 | 144 | 3.5 | 10.4 | 0.00 | 0.00 | 0.00 | 47 | 1011.9 |
| 20260504221502 | 69 | 328 | 1.7 | 8.7 | 0.00 | 0.00 | 0.00 | 47 | 1012.1 |
| 20260504221057 | 69 | 210 | 1.7 | 8.7 | 0.00 | 0.00 | 0.00 | 46 | 1012.2 |
| 20260504220551 | 70 | 15 | 0.9 | 6.1 | 0.00 | 0.00 | 0.00 | 47 | 1012.3 |
| 20260504220002 | 70 | 355 | 0.9 | 7.0 | 0.00 | 0.00 | 0.00 | 47 | 1012.1 |
| 20260504215558 | 70 | 14 | 1.7 | 7.0 | 0.00 | 0.00 | 0.00 | 46 | 1012.1 |
| 20260504215052 | 70 | 272 | 1.7 | 5.2 | 0.00 | 0.00 | 0.00 | 47 | 1012.0 |
| 20260504214507 | 69 | 313 | 0.9 | 7.8 | 0.00 | 0.00 | 0.00 | 49 | 1011.8 |
| 20260504214059 | 69 | 230 | 2.6 | 7.8 | 0.00 | 0.00 | 0.00 | 47 | 1011.7 |
| 20260504213554 | 69 | 263 | 0.0 | 5.2 | 0.00 | 0.00 | 0.00 | 49 | 1011.8 |
| 20260504213032 | 69 | 350 | 0.9 | 5.2 | 0.00 | 0.00 | 0.00 | 50 | 1011.9 |
| 20260504212524 | 69 | 146 | 0.9 | 5.2 | 0.00 | 0.00 | 0.00 | 50 | 1011.9 |
| 20260504212018 | 69 | 244 | 2.6 | 6.1 | 0.00 | 0.00 | 0.00 | 49 | 1011.9 |
| 20260504211527 | 69 | 323 | 1.7 | 3.5 | 0.00 | 0.00 | 0.00 | 49 | 1011.9 |
| 20260504211022 | 69 | 87 | 0.9 | 3.5 | 0.00 | 0.00 | 0.00 | 49 | 1011.9 |
| 20260504210516 | 68 | 124 | 0.0 | 2.6 | 0.00 | 0.00 | 0.00 | 49 | 1012.0 |
| 20260504210027 | 68 | 308 | 0.0 | 5.2 | 0.00 | 0.00 | 0.00 | 49 | 1012.0 |
| 20260504205521 | 68 | 56 | 1.7 | 8.7 | 0.00 | 0.00 | 0.00 | 49 | 1012.0 |
| 20260504205012 | 69 | 239 | 0.9 | 8.7 | 0.00 | 0.00 | 0.00 | 48 | 1012.1 |
| 20260504204526 | 69 | 242 | 0.9 | 7.0 | 0.00 | 0.00 | 0.00 | 48 | 1012.1 |
| 20260504204021 | 69 | 89 | 0.9 | 7.0 | 0.00 | 0.00 | 0.00 | 47 | 1012.1 |
| 20260504203516 | 69 | 247 | 1.7 | 7.8 | 0.00 | 0.00 | 0.00 | 47 | 1012.0 |
| 20260504203055 | 69 | 37 | 0.9 | 7.8 | 0.00 | 0.00 | 0.00 | 47 | 1012.0 |
| 20260504202543 | 69 | 128 | 2.6 | 7.0 | 0.00 | 0.00 | 0.00 | 46 | 1012.1 |
| 20260504202041 | 69 | 57 | 1.7 | 6.1 | 0.00 | 0.00 | 0.00 | 46 | 1012.1 |
| 20260504201550 | 70 | 87 | 2.6 | 10.4 | 0.00 | 0.00 | 0.00 | 45 | 1012.0 |
| 20260504201045 | 70 | 280 | 4.3 | 12.2 | 0.00 | 0.00 | 0.00 | 45 | 1012.2 |
| 20260504200540 | 70 | 5 | 1.7 | 12.2 | 0.00 | 0.00 | 0.00 | 44 | 1012.3 |
| 20260504200100 | 70 | 261 | 7.0 | 11.3 | 0.00 | 0.00 | 0.00 | 43 | 1012.3 |
| 20260504195548 | 70 | 133 | 2.6 | 9.6 | 0.00 | 0.00 | 0.00 | 44 | 1012.2 |
| 20260504195041 | 71 | 96 | 1.7 | 12.2 | 0.00 | 0.00 | 0.00 | 43 | 1012.2 |
| 20260504194603 | 71 | 288 | 4.3 | 10.4 | 0.00 | 0.00 | 0.00 | 42 | 1012.2 |
| 20260504194047 | 71 | 355 | 3.5 | 7.0 | 0.00 | 0.00 | 0.00 | 41 | 1012.0 |
| 20260504193541 | 71 | 5 | 2.6 | 8.7 | 0.00 | 0.00 | 0.00 | 42 | 1012.1 |
| 20260504193055 | 72 | 21 | 3.5 | 11.3 | 0.00 | 0.00 | 0.00 | 42 | 1012.1 |
| 20260504192544 | 72 | 49 | 3.5 | 11.3 | 0.00 | 0.00 | 0.00 | 43 | 1012.1 |
| 20260504192037 | 72 | 279 | 3.5 | 8.7 | 0.00 | 0.00 | 0.00 | 42 | 1012.0 |
| 20260504191509 | 71 | 70 | 2.6 | 17.4 | 0.00 | 0.00 | 0.00 | 45 | 1012.0 |
| 20260504191102 | 71 | 126 | 4.3 | 17.4 | 0.00 | 0.00 | 0.00 | 44 | 1011.9 |
| 20260504190556 | 71 | 238 | 1.7 | 8.7 | 0.00 | 0.00 | 0.00 | 44 | 1012.2 |
| 20260504190026 | 70 | 56 | 2.6 | 8.7 | 0.00 | 0.00 | 0.00 | 44 | 1012.4 |
| 20260504185516 | 70 | 42 | 3.5 | 11.3 | 0.00 | 0.00 | 0.00 | 45 | 1012.5 |
| 20260504185010 | 70 | 338 | 2.6 | 8.7 | 0.00 | 0.00 | 0.00 | 44 | 1012.5 |
| 20260504184544 | 70 | 38 | 3.5 | 9.6 | 0.00 | 0.00 | 0.00 | 44 | 1012.5 |
| 20260504184038 | 70 | 17 | 1.7 | 9.6 | 0.00 | 0.00 | 0.00 | 44 | 1012.5 |
| 20260504183531 | 69 | 186 | 3.5 | 9.6 | 0.00 | 0.00 | 0.00 | 45 | 1012.6 |
| 20260504183041 | 69 | 360 | 4.3 | 9.6 | 0.00 | 0.00 | 0.00 | 47 | 1012.6 |
| 20260504182532 | 69 | 173 | 1.7 | 9.6 | 0.00 | 0.00 | 0.00 | 47 | 1012.9 |
| 20260504182026 | 69 | 21 | 2.6 | 8.7 | 0.00 | 0.00 | 0.00 | 50 | 1013.0 |
| 20260504181603 | 68 | 170 | 3.5 | 11.3 | 0.00 | 0.00 | 0.00 | 48 | 1013.1 |
| 20260504181053 | 68 | 37 | 2.6 | 11.3 | 0.00 | 0.00 | 0.00 | 48 | 1013.2 |
| 20260504180546 | 68 | 38 | 3.5 | 12.2 | 0.00 | 0.00 | 0.00 | 49 | 1013.2 |
| 20260504180056 | 67 | 53 | 5.2 | 12.2 | 0.00 | 0.00 | 0.00 | 49 | 1013.1 |
| 20260504175546 | 67 | 338 | 2.6 | 10.4 | 0.00 | 0.00 | 0.00 | 49 | 1013.4 |
| 20260504175040 | 67 | 151 | 2.6 | 10.4 | 0.00 | 0.00 | 0.00 | 49 | 1013.4 |
| 20260504174553 | 67 | 55 | 2.6 | 7.8 | 0.00 | 0.00 | 0.00 | 52 | 1013.7 |
| 20260504174046 | 67 | 5 | 1.7 | 11.3 | 0.00 | 0.00 | 0.00 | 52 | 1013.7 |
| 20260504173538 | 67 | 105 | 3.5 | 9.6 | 0.00 | 0.00 | 0.00 | 52 | 1013.9 |
| 20260504173008 | 66 | 99 | 1.7 | 7.8 | 0.00 | 0.00 | 0.00 | 53 | 1013.8 |
| 20260504172502 | 66 | 324 | 2.6 | 8.7 | 0.00 | 0.00 | 0.00 | 52 | 1013.9 |
| 20260504172055 | 66 | 57 | 3.5 | 8.7 | 0.00 | 0.00 | 0.00 | 54 | 1013.9 |
| 20260504171539 | 66 | 96 | 3.5 | 8.7 | 0.00 | 0.00 | 0.00 | 54 | 1014.0 |
| 20260504171017 | 65 | 166 | 2.6 | 8.7 | 0.00 | 0.00 | 0.00 | 54 | 1014.2 |
| 20260504170511 | 65 | 158 | 0.9 | 4.3 | 0.00 | 0.00 | 0.00 | 56 | 1014.3 |
| 20260504151053 | 62 | 297 | 1.7 | 13.0 | 0.00 | 0.00 | 0.00 | 49 | 1015.6 |
| 20260504150545 | 62 | 244 | 6.1 | 13.0 | 0.00 | 0.00 | 0.00 | 49 | 1015.6 |
| 20260504141039 | 61 | 106 | 4.3 | 13.0 | 0.00 | 0.00 | 0.00 | 48 | 1015.9 |
| 20260504140534 | 61 | 269 | 2.6 | 13.0 | 0.00 | 0.00 | 0.00 | 48 | 1016.0 |
| 20260504130547 | 59 | 128 | 2.6 | 7.8 | 0.00 | 0.00 | 0.00 | 49 | 1015.8 |
| 20260504110545 | 47 | 59 | 0.0 | 0.0 | 0.00 | 0.00 | 0.00 | 77 | 1016.7 |
| 20260504100511 | 47 | 59 | 0.0 | 0.0 | 0.00 | 0.00 | 0.00 | 76 | 1016.8 |
| 20260504090122 | 47 | 265 | 0.0 | 0.0 | 0.00 | 0.00 | 0.00 | 74 | 1017.4 |
| 20260504081518 | 49 | 265 | 0.0 | 0.9 | 0.00 | 0.00 | 0.00 | 70 | 1017.6 |
| 20260504081003 | 49 | 265 | 0.0 | 0.9 | 0.00 | 0.00 | 0.00 | 68 | 1017.6 |
| 20260504080550 | 49 | 265 | 0.0 | 0.9 | 0.00 | 0.00 | 0.00 | 67 | 1017.7 |
| 20260504050557 | 47 | 265 | 0.0 | 0.0 | 0.00 | 0.00 | 0.00 | 56 | 1018.4 |
| 20260504050016 | 47 | 265 | 0.0 | 0.0 | 0.00 | 0.00 | 0.00 | 57 | 1018.3 |
| 20260504045602 | 47 | 265 | 0.0 | 0.0 | 0.00 | 0.00 | 0.00 | 56 | 1018.4 |
| 20260504045047 | 47 | 265 | 0.0 | 0.0 | 0.00 | 0.00 | 0.00 | 57 | 1018.3 |
| 20260504044518 | 47 | 265 | 0.0 | 0.0 | 0.00 | 0.00 | 0.00 | 57 | 1018.5 |
| 20260504044057 | 48 | 265 | 0.0 | 0.0 | 0.00 | 0.00 | 0.00 | 55 | 1018.5 |
| 20260504043543 | 48 | 265 | 0.0 | 0.0 | 0.00 | 0.00 | 0.00 | 56 | 1018.4 |
| 20260504043048 | 48 | 265 | 0.0 | 0.0 | 0.00 | 0.00 | 0.00 | 55 | 1018.5 |
| 20260504042525 | 48 | 265 | 0.0 | 0.0 | 0.00 | 0.00 | 0.00 | 55 | 1018.4 |
| 20260504042010 | 48 | 265 | 0.0 | 0.0 | 0.00 | 0.00 | 0.00 | 55 | 1018.4 |
| 20260504041513 | 48 | 265 | 0.0 | 0.0 | 0.00 | 0.00 | 0.00 | 55 | 1018.4 |
| 20260504041059 | 48 | 265 | 0.0 | 0.0 | 0.00 | 0.00 | 0.00 | 55 | 1018.4 |
| 20260504040544 | 48 | 265 | 0.0 | 0.0 | 0.00 | 0.00 | 0.00 | 55 | 1018.5 |
| 20260504040003 | 48 | 265 | 0.0 | 0.0 | 0.00 | 0.00 | 0.00 | 55 | 1018.5 |
| 20260504035554 | 48 | 265 | 0.0 | 0.0 | 0.00 | 0.00 | 0.00 | 54 | 1018.5 |
| 20260504035036 | 48 | 265 | 0.0 | 0.0 | 0.00 | 0.00 | 0.00 | 53 | 1018.5 |
| 20260504034537 | 48 | 265 | 0.0 | 0.0 | 0.00 | 0.00 | 0.00 | 53 | 1018.5 |
| 20260504034022 | 49 | 265 | 0.0 | 0.0 | 0.00 | 0.00 | 0.00 | 53 | 1018.6 |
| 20260504033511 | 49 | 265 | 0.0 | 0.0 | 0.00 | 0.00 | 0.00 | 52 | 1018.6 |
| 20260504033030 | 49 | 265 | 0.0 | 0.0 | 0.00 | 0.00 | 0.00 | 53 | 1018.6 |
| 20260504032512 | 49 | 265 | 0.0 | 0.0 | 0.00 | 0.00 | 0.00 | 52 | 1018.6 |
| 20260504032101 | 49 | 265 | 0.0 | 0.0 | 0.00 | 0.00 | 0.00 | 52 | 1018.6 |
| 20260504031521 | 49 | 265 | 0.0 | 0.0 | 0.00 | 0.00 | 0.00 | 53 | 1018.7 |
| 20260504031004 | 49 | 265 | 0.0 | 0.0 | 0.00 | 0.00 | 0.00 | 51 | 1018.6 |
| 20260504030553 | 49 | 265 | 0.0 | 0.0 | 0.00 | 0.00 | 0.00 | 52 | 1018.6 |
| 20260504030052 | 49 | 265 | 0.0 | 0.0 | 0.00 | 0.00 | 0.00 | 51 | 1018.6 |
| 20260504025537 | 49 | 265 | 0.0 | 0.0 | 0.00 | 0.00 | 0.00 | 51 | 1018.7 |
| 20260504025021 | 49 | 265 | 0.0 | 0.0 | 0.00 | 0.00 | 0.00 | 51 | 1018.7 |
| 20260504024523 | 49 | 265 | 0.0 | 0.0 | 0.00 | 0.00 | 0.00 | 50 | 1018.6 |
| 20260504024008 | 49 | 265 | 0.0 | 0.0 | 0.00 | 0.00 | 0.00 | 50 | 1018.6 |
| 20260504023555 | 49 | 265 | 0.0 | 0.0 | 0.00 | 0.00 | 0.00 | 50 | 1018.7 |